YAOGAN 7

Last updated on Wed Apr 24 2024 00:02:24 GMT+0000 (Coordinated Universal Time)

1 36110U 09069A 24114.57776964 .00001808 00000+0 26812-3 0 9996 2 36110 98.1133 350.2194 0026508 45.8050 314.5331 14.76119415773797

Satellite not in orbit

YAOGAN 7